Home   Weather   Horten   Past weeks
Flag for Norway

Past Weather in Horten, Norway — Yesterday and Last 2 Weeks

Now
52 °F

Partly sunny.


Feels Like: 50 °F
Forecast: 48 / 45 °F
Wind: 6 mph from South

Location: Oseberg

Current Time: Oct 14, 2019 at 12:49:39 pm

Latest Report: Oct 14, 2019 at 11:50 am


Visibility: N/A

Pressure: 29.80 "Hg

Humidity: 77%

Dew Point: 45 °F

Location of HortenLocation

Past Weather in Horten — Graph

°F

Horten Temperature Yesterday

Maximum temperature yesterday: 52 °F (at 3:50 pm)
Minimum temperature yesterday: 48 °F (at 12:50 am)
Average temperature yesterday: 50 °F

High & Low Weather Summary for the Past Weeks

 TemperatureHumidityPressure
High55 °F (Oct 2, 3:20 pm)100% (Sep 29, 8:50 pm)30.24 "Hg (Sep 29, 8:50 pm)
Low45 °F (Sep 30, 10:50 am)50% (Oct 3, 7:20 am)29.12 "Hg (Oct 9, 4:30 am)
Average50 °F78%29.61 "Hg
* Reported Sep 29 11:20 am — Oct 14 11:20 am, Horten. Weather by CustomWeather, © 2019

Note: Actual official high and low records may vary slightly from our data, if they occured in-between our weather recording intervals... More about our weather records

Advertising

Horten Weather History for the Previous 24 Hours

Scroll right to see more
 ConditionsComfort  
Time TempWeatherWind HumidityBarometerVisibility
11:20 am
Mon, Oct 14
52 °FPartly sunny.6 mph77%29.80 "HgN/A
10:50 am50 °FPartly sunny.6 mph76%29.77 "HgN/A
9:50 am50 °FScattered clouds.2 mph82%29.77 "HgN/A
9:20 am50 °FScattered clouds.1 mph76%29.74 "HgN/A
8:50 am50 °FScattered clouds.No wind76%29.74 "HgN/A
8:20 am50 °FPartly sunny.No wind76%29.71 "HgN/A
7:50 am52 °FPassing clouds.2 mph72%29.71 "HgN/A
6:50 am50 °FPassing clouds.13 mph76%29.68 "HgN/A
6:03 am50 °FPassing clouds.12 mph76%29.68 "HgN/A
5:50 am52 °FPassing clouds.10 mph72%29.65 "HgN/A
5:05 am50 °FPassing clouds.9 mph82%29.65 "HgN/A
4:50 am50 °FPassing clouds.12 mph82%29.65 "HgN/A
3:50 am50 °FPassing clouds.7 mph88%29.65 "HgN/A
2:50 am50 °FPassing clouds.14 mph94%29.62 "HgN/A
1:50 am50 °FPassing clouds.14 mph94%29.62 "HgN/A
12:50 am50 °FPassing clouds.10 mph94%29.62 "HgN/A
11:50 pm
Sun, Oct 13
50 °FPassing clouds.12 mph94%29.62 "HgN/A
10:50 pm52 °FPassing clouds.7 mph88%29.62 "HgN/A
9:50 pm50 °FPassing clouds.10 mph88%29.62 "HgN/A
9:20 pm50 °FPassing clouds.12 mph88%29.62 "HgN/A
7:50 pm50 °FPassing clouds.13 mph88%29.62 "HgN/A
6:50 pm50 °FPassing clouds.14 mph88%29.62 "HgN/A
6:20 pm50 °FPassing clouds.14 mph88%29.65 "HgN/A
5:50 pm50 °FPassing clouds.12 mph88%29.65 "HgN/A
5:20 pm50 °FScattered clouds.12 mph88%29.65 "HgN/A
4:50 pm50 °FScattered clouds.9 mph88%29.65 "HgN/A
4:20 pm50 °FPassing clouds.9 mph88%29.65 "HgN/A
3:50 pm52 °FPassing clouds.6 mph82%29.65 "HgN/A
3:20 pm50 °FScattered clouds.7 mph88%29.68 "HgN/A
2:50 pm50 °FScattered clouds.7 mph88%29.68 "HgN/A
2:20 pm50 °FScattered clouds.6 mph88%29.68 "HgN/A
1:50 pm50 °FPartly sunny.8 mph76%29.68 "HgN/A
1:14 pm48 °FScattered showers. Partly sunny.9 mph82%29.68 "HgN/A
12:46 pm50 °FSprinkles. Partly sunny.6 mph82%29.68 "HgN/A
12:20 pm50 °FScattered showers. Partly sunny.6 mph76%29.68 "HgN/A
Weather by CustomWeather, © 2019

See weather overview